Tracking 23726 objects as of 24-Sep-2021
HD Live streaming from Space Station
objects crossing your sky now

DMSP 5D-2 F13 DEB

Track DMSP 5D-2 F13 DEB now!
10-day predictions


NORAD ID: 42328
Int'l Code: 1995-015JW
Perigee: 812.9 km
Apogee: 872.4 km
Inclination: 98.8 °
Period: 101.6 minutes
Semi major axis: 7213 km
RCS: Unknown
Launch date: March 24, 1995
Source: United States (US)
Launch site: AIR FORCE WESTERN TEST RANGE (AFWTR)

Note: This is SATELLITE DEBRIS
aabbcc
Your satellite tracking list
Your tracking list is empty




NASA's NSSDC Master Catalog

Two Line Element Set (TLE):
1 42328U 95015JW  21264.41718682  .00001939  00000-0  97850-3 0  9995
2 42328  98.7986 247.1905 0041200 189.3435 170.6977 14.17000645305414
Source of the keplerian elements: AFSPC